Skip Page Navigation
NASA JPL Caltech
NASA Logo - Jet Propulsion Laboratory + View the NASA Portal
+ Center for Near-Earth Object Studies
JPL Home Earth Solar System Stars & Galaxies Technology
JPL Solar System Dynamics
BODIES ORBITS EPHEMERIDES TOOLS PHYSICAL DATA DISCOVERY FAQ SITE MAP
JPL Small-Body Database Browser
Search: [ help ]  
413931 (2006 XB16)
Classification: Main-belt Asteroid          SPK-ID: 2413931
Ephemeris | Orbit Diagram | Orbital Elements | Mission Design | Physical Parameters | Discovery Circumstances ]

[ show orbit diagram ]
Orbital Elements at Epoch 2459000.5 (2020-May-31.0) TDB
Reference: JPL 13 (heliocentric ecliptic J2000)
 Element Value Uncertainty (1-sigma)   Units 
e .2361232103455561 1.6136e-07  
a 2.532914650349556 1.8194e-08 au
q 1.934834711577727 4.1306e-07 au
i 4.325213524285487 9.8509e-06 deg
node 93.23584104949934 7.5904e-05 deg
peri 339.4889272286117 7.7517e-05 deg
M 132.6162902899005 1.1788e-05 deg
tp 2458458.095061379169
(2018-Dec-05.59506138)
4.6009e-05 TDB
period 1472.411703544462
4.03
1.5864e-05
4.343e-08
d
yr
n .2444968340942891 2.6343e-09 deg/d
Q 3.130994589121385 2.249e-08 au
  Orbit Determination Parameters
   # obs. used (total)      176  
   data-arc span      6326 days (17.32 yr)  
   first obs. used      2002-12-31  
   last obs. used      2020-04-26  
   planetary ephem.      DE431  
   SB-pert. ephem.      SB431-N16  
   condition code      0  
   norm. resid. RMS      .51711  
   source      ORB  
   producer      Otto Matic  
   solution date      2020-May-22 02:09:09  

Additional Information
 Earth MOID = .950401 au 
 Jupiter MOID = 2.16064 au 
 T_jup = 3.406 
[ hide covariance matrix ]
Orbital Elements at Epoch 2457458.5 (2016-Mar-11.0) TDB
Reference: JPL 13 (heliocentric ecliptic J2000)
 Element Value Uncertainty (1-sigma)   Units 
e .2360095612198607 1.6105e-07  
q 1.935700415184452 4.123e-07 au
tp 2456986.296029365481
(2014-Nov-24.79602937)
4.4132e-05 TDB
node 93.24826777733864 7.5906e-05 deg
peri 339.706845312892 7.7544e-05 deg
i 4.324722846101784 9.8488e-06 deg
  Orbit Determination Parameters
   # obs. used (total)      176  
   data-arc span      6326 days (17.32 yr)  
   first obs. used      2002-12-31  
   last obs. used      2020-04-26  
   planetary ephem.      DE431  
   SB-pert. ephem.      SB431-N16  
   condition code      0  
   norm. resid. RMS      .51711  
   source      ORB  
   producer      Otto Matic  
   solution date      2020-May-22 02:09:09  

Additional Information
 Jupiter MOID = 2.16064 au 
 T_jup = 3.406 
Orbit Covariance (6×6)
  e q tp node peri i
e 2.593849408035015E-14 -6.636780939300728E-14 -3.760453500334404E-12 -1.255539680991416E-13 -1.845784257682344E-12 2.581208731501735E-14
q -6.636780939300728E-14 1.699905821265192E-13 9.500203963166679E-12 3.210758472277157E-13 4.707467589920085E-12 -6.576661447021936E-14
tp -3.760453500334404E-12 9.500203963166679E-12 1.947590970765443E-9 1.894729040901708E-11 7.026398944666527E-10 -5.270323649911182E-12
node -1.255539680991416E-13 3.210758472277157E-13 1.894729040901708E-11 5.761733453035477E-9 -5.734937944886135E-9 -4.391369920439398E-10
peri -1.845784257682344E-12 4.707467589920085E-12 7.026398944666527E-10 -5.734937944886135E-9 6.013078263824345E-9 4.354786678266675E-10
i 2.581208731501735E-14 -6.576661447021936E-14 -5.270323649911182E-12 -4.391369920439398E-10 4.354786678266675E-10 9.699955905925741E-11

Ephemeris | Orbit Diagram | Orbital Elements | Mission Design | Physical Parameters | Discovery Circumstances ]

Physical Parameter Table
Parameter Symbol Value Units Sigma Reference Notes
absolute magnitude H 17.3   n/a MPO472166  

413931 (2006 XB16)          Discovered 2006-Dec-10 by Spacewatch at Kitt Peak
Reference: Last Updated: 2014-11-10

Alternate Designations
 2006 XB16 = 2002 YN25 
Ephemeris | Orbit Diagram | Orbital Elements | Mission Design | Physical Parameters | Discovery Circumstances ]
ABOUT SSD CREDITS/AWARDS PRIVACY/COPYRIGHT GLOSSARY LINKS
FirstGov 2020-Oct-28 20:41 UT
(server date/time)  
NASA Home Page
Site Manager:   Ryan S. Park
Webmaster  Alan B. Chamberlin